Location: Unspecified
(0.0000°N, 0.0000°E)
Time: 04:48:13
(UTC+00:00)

Nadezhda 1 - Visible Passes

Search period start: 14 May 2026 00:00
Search period end: 24 May 2026 00:00
Orbit: 955 x 1009 km, 83.0° (Epoch: 13 May)

Date Brightness Start Highest point End Pass type
(mag) Time Alt. Az. Time Alt. Az. Time Alt. Az.
15 May 8.4 05:13:05 10° SSE 05:18:14 26° E 05:23:23 10° NE visible
15 May 6.7 18:18:28 10° NNW 18:24:29 60° W 18:30:32 10° S visible
16 May 8.2 18:46:51 10° NW 18:51:47 26° W 18:56:45 10° SSW visible
18 May 8.4 04:49:57 10° SE 04:54:58 24° E 04:59:57 10° NE visible
19 May 6.9 05:16:01 10° S 05:22:16 55° E 05:28:29 10° NNE visible
19 May 8.2 18:23:23 10° NW 18:28:28 28° W 18:33:34 10° SSW visible
20 May 9.1 18:54:22 10° W 18:55:46 11° W 18:57:11 10° WSW visible
21 May 8.4 04:26:50 10° SE 04:31:41 23° E 04:36:29 10° NE visible
22 May 7.0 04:52:47 10° SSE 04:58:59 51° E 05:05:09 10° NNE visible
23 May 6.1 05:19:53 10° S 05:26:16 72° W 05:32:39 10° N visible
23 May 9.0 18:30:21 10° WNW 18:32:28 12° W 18:34:34 10° WSW visible
